Weather observations for the past three days for
Bermuda
| Date | Time (adt) | Wind (mph) | Vis. (mi.) | Weather | Sky Cond. | Temperature (ºF) | Relative Humidity | Wind Chill (°F) | Heat Index (°F) | Pressure | Precipitation (in) | ||||||
|---|---|---|---|---|---|---|---|---|---|---|---|---|---|---|---|---|---|
| Air | Dwpt | 6 hour | altimeter (in) | sea level (mb) | 1 hr | 3 hr | 6 hr | ||||||||||
| Max. | Min. | ||||||||||||||||
| 09 | 07:55 | NE 13 | 0.00 | Mostly Cloudy | FEW016 SCT040 BKN300 | 69.8 | 62.6 | 78% | 0 | 0.0 | |||||||
| 09 | 06:55 | NE 9 | 0.00 | Mostly Cloudy | SCT017 SCT043 BKN300 | 68 | 62.6 | 83% | 0 | 0.0 | |||||||
| 09 | 05:55 | NE 8 | 0.00 | Partly Cloudy | SCT017 | 68 | 62.6 | 83% | 0 | 0.0 | |||||||
| 09 | 04:55 | N 8 | 0.00 | Partly Cloudy | SCT018 | 68 | 62.6 | 83% | 0 | 0.0 | |||||||
| 09 | 03:55 | N 9 | 0.00 | Partly Cloudy | SCT015 | 68 | 64.4 | 88% | 0 | 0.0 | |||||||
| 09 | 02:55 | N 7 | 0.00 | A Few Clouds | FEW013 | 68 | 64.4 | 88% | 0 | 0.0 | |||||||
| 09 | 01:55 | N 7 | 0.00 | Partly Cloudy | SCT013 | 68 | 64.4 | 88% | 0 | 0.0 | |||||||
| 09 | 00:55 | N 6 | 0.00 | A Few Clouds | FEW011 FEW035 | 69.8 | 64.4 | 83% | 0 | 0.0 | |||||||
| 08 | 23:55 | N 9 | 0.00 | Mostly Cloudy | FEW011 BKN030 | 69.8 | 66.2 | 88% | 0 | 0.0 | |||||||
| 08 | 22:55 | N 7 | 0.00 | A Few Clouds | FEW008 FEW046 | 69.8 | 66.2 | 88% | 0 | 0.0 | |||||||
| 08 | 21:55 | NW 9 | 0.00 | Mostly Cloudy | FEW010 BKN051 | 71.6 | 66.2 | 83% | 0 | 0.0 | |||||||
| 08 | 20:55 | NW 10 | 0.00 | Mostly Cloudy | BKN023 BKN059 | 71.6 | 66.2 | 83% | 0 | 0.0 | |||||||
| 08 | 19:55 | W 14 | 0.00 | Light Drizzle Fog/Mist | BKN007 OVC025 | 71.6 | 69.8 | 94% | 0 | 0.0 | |||||||
| 08 | 18:55 | W 17 | 0.00 | Light Drizzle | BKN007 OVC019 | 71.6 | 69.8 | 94% | 0 | 0.0 | |||||||
| 08 | 17:55 | W 18 | 0.00 | Overcast | BKN011 BKN020 BKN180 OVC300 | 73.4 | 69.8 | 89% | 0 | 0.0 | |||||||
| 08 | 16:55 | W 23 | 0.00 | Overcast and Breezy | BKN012 BKN025 BKN180 OVC300 | 75.2 | 69.8 | 83% | 75 | 0 | 0.0 | ||||||
| 08 | 15:55 | SW 22 | 0.00 | Mostly Cloudy and Breezy | FEW011 SCT033 SCT180 BKN300 | 77 | 71.6 | 83% | 78 | 0 | 0.0 | ||||||
| 08 | 14:55 | SW 23 | 0.00 | Mostly Cloudy and Breezy | BKN012 BKN037 BKN180 | 77 | 71.6 | 83% | 78 | 0 | 0.0 | ||||||
| 08 | 13:55 | SW 23 | 0.00 | Mostly Cloudy and Breezy | SCT013 BKN033 BKN050 BKN300 | 78.8 | 71.6 | 79% | 82 | 0 | 0.0 | ||||||
| 08 | 12:55 | SW 20 | 0.00 | Mostly Cloudy | BKN015 BKN037 BKN055 | 77 | 69.8 | 79% | 79 | 0 | 0.0 | ||||||
| 08 | 11:55 | SW 20 | 0.00 | Overcast | BKN014 BKN030 OVC300 | 77 | 68 | 74% | 79 | 0 | 0.0 | ||||||
| 08 | 10:55 | SW 20 | 0.00 | Mostly Cloudy | SCT017 BKN033 BKN065 BKN300 | 75.2 | 68 | 78% | 76 | 0 | 0.0 | ||||||
| 08 | 09:55 | SW 21 | 0.00 | Showers in Vicinity and Breezy | SCT023 BKN060 BKN300 | 73.4 | 68 | 83% | 0 | 0.0 | |||||||
| 08 | 08:55 | SW 20 | 0.00 | Mostly Cloudy | FEW023 BKN040 BKN057 BKN300 | 71.6 | 66.2 | 83% | 0 | 0.0 | |||||||
| 08 | 07:55 | SW 18 | 0.00 | Overcast | BKN025 BKN045 BKN230 OVC300 | 71.6 | 64.4 | 78% | 0 | 0.0 | |||||||
| 08 | 06:55 | SW 17 | 0.00 | Overcast | BKN027 BKN040 BKN230 OVC300 | 69.8 | 64.4 | 83% | 0 | 0.0 | |||||||
| 08 | 05:55 | SW 16 | 0.00 | Mostly Cloudy | FEW160 BKN220 BKN300 | 69.8 | 62.6 | 78% | 0 | 0.0 | |||||||
| 08 | 04:55 | SW 16 | 0.00 | Overcast | FEW021 SCT150 BKN230 OVC300 | 69.8 | 60.8 | 73% | 0 | 0.0 | |||||||
| 08 | 03:55 | SW 17 | 0.00 | Overcast | FEW021 FEW160 OVC300 | 69.8 | 60.8 | 73% | 0 | 0.0 | |||||||
| 08 | 02:55 | SW 17 | 0.00 | Overcast | FEW021 SCT190 OVC300 | 69.8 | 62.6 | 78% | 0 | 0.0 | |||||||
| 08 | 01:55 | SW 16 | 0.00 | Mostly Cloudy | FEW025 BKN300 | 68 | 62.6 | 83% | 0 | 0.0 | |||||||
| 08 | 00:55 | SW 15 | 0.00 | Mostly Cloudy | FEW025 BKN300 | 68 | 60.8 | 78% | 0 | 0.0 | |||||||
| 07 | 23:55 | SW 12 | 0.00 | Mostly Cloudy | FEW025 BKN300 | 68 | 60.8 | 78% | 0 | 0.0 | |||||||
| 07 | 22:55 | SW 12 | 0.00 | Mostly Cloudy | FEW020 BKN300 | 68 | 60.8 | 78% | 0 | 0.0 | |||||||
| 07 | 21:55 | SW 10 | 0.00 | Mostly Cloudy | FEW020 BKN300 | 69.8 | 60.8 | 73% | 0 | 0.0 | |||||||
| 07 | 20:55 | W 10 | 0.00 | Mostly Cloudy | FEW020 BKN300 | 69.8 | 62.6 | 78% | 0 | 0.0 | |||||||
| 07 | 19:55 | SW 9 | 0.00 | Mostly Cloudy | FEW022 FEW037 BKN300 | 69.8 | 60.8 | 73% | 0 | 0.0 | |||||||
| 07 | 18:55 | SW 9 | 0.00 | Mostly Cloudy | SCT028 BKN300 | 71.6 | 62.6 | 73% | 0 | 0.0 | |||||||
| 07 | 17:55 | S 12 | 0.00 | Mostly Cloudy | SCT025 BKN300 | 73.4 | 60.8 | 65% | 0 | 0.0 | |||||||
| 07 | 16:55 | S 9 | 0.00 | Mostly Cloudy | FEW024 BKN300 | 73.4 | 62.6 | 69% | 0 | 0.0 | |||||||
| 07 | 15:55 | S 6 | 0.00 | Mostly Cloudy | SCT021 BKN300 | 71.6 | 62.6 | 73% | 0 | 0.0 | |||||||
| 07 | 14:55 | W 6 | 0.00 | Mostly Cloudy | FEW029 BKN300 | 73.4 | 62.6 | 69% | 0 | 0.0 | |||||||
| 07 | 13:55 | S 6 | 0.00 | Mostly Cloudy | FEW030 BKN300 | 73.4 | 62.6 | 69% | 0 | 0.0 | |||||||
| 07 | 12:55 | S 3 | 0.00 | Mostly Cloudy | FEW025 BKN300 | 71.6 | 62.6 | 73% | 0 | 0.0 | |||||||
| 07 | 11:55 | N 5 | 0.00 | Mostly Cloudy | FEW018 BKN300 | 71.6 | 62.6 | 73% | 0 | 0.0 | |||||||
| 07 | 10:55 | NW 6 | 0.00 | Mostly Cloudy | FEW018 BKN300 | 71.6 | 62.6 | 73% | 0 | 0.0 | |||||||
| 07 | 09:55 | NW 9 | 0.00 | Mostly Cloudy | FEW015 BKN052 BKN300 | 71.6 | 64.4 | 78% | 0 | 0.0 | |||||||
| 07 | 08:55 | NW 7 | 0.00 | Partly Cloudy | FEW014 SCT300 | 69.8 | 64.4 | 83% | 0 | 0.0 | |||||||
| 07 | 07:55 | W 7 | 0.00 | A Few Clouds | FEW014 | 68 | 64.4 | 88% | 0 | 0.0 | |||||||
| 07 | 06:55 | W 5 | 0.00 | A Few Clouds | FEW014 | 66.2 | 62.6 | 88% | 0 | 0.0 | |||||||
| 07 | 05:55 | NW 3 | 0.00 | A Few Clouds | FEW013 | 66.2 | 62.6 | 88% | 0 | 0.0 | |||||||
| 07 | 04:55 | W 2 | 0.00 | A Few Clouds | FEW013 | 66.2 | 64.4 | 94% | 0 | 0.0 | |||||||
| 07 | 03:55 | Calm | 0.00 | A Few Clouds | FEW013 | 66.2 | 64.4 | 94% | 0 | 0.0 | |||||||
| 07 | 02:55 | Calm | 0.00 | A Few Clouds | FEW012 | 66.2 | 64.4 | 94% | 0 | 0.0 | |||||||
| 07 | 01:55 | N 2 | 0.00 | A Few Clouds | FEW014 | 68 | 64.4 | 88% | 0 | 0.0 | |||||||
| 07 | 00:55 | N 3 | 0.00 | A Few Clouds | FEW013 | 68 | 64.4 | 88% | 0 | 0.0 | |||||||
| 06 | 23:55 | N 6 | 0.00 | Partly Cloudy | FEW012 SCT026 | 68 | 64.4 | 88% | 0 | 0.0 | |||||||
| 06 | 22:55 | N 7 | 0.00 | Partly Cloudy | SCT012 | 68 | 64.4 | 88% | 0 | 0.0 | |||||||
| 06 | 21:55 | N 8 | 0.00 | A Few Clouds | FEW012 | 68 | 64.4 | 88% | 0 | 0.0 | |||||||
| 06 | 20:55 | N 10 | 0.00 | Partly Cloudy | FEW012 SCT031 | 69.8 | 66.2 | 88% | 0 | 0.0 | |||||||
| 06 | 19:55 | N 9 | 0.00 | Showers in Vicinity | FEW010 SCT034 | 69.8 | 66.2 | 88% | 0 | 0.0 | |||||||
| 06 | 18:55 | N 10 | 0.00 | Light Showers Rain | BKN012 BKN029 | 69.8 | 66.2 | 88% | 0 | 0.0 | |||||||
| 06 | 17:55 | NW 10 | 0.00 | Showers in Vicinity | FEW015 BKN030 | 71.6 | 64.4 | 78% | 0 | 0.0 | |||||||
| 06 | 16:55 | N 9 | 0.00 | A Few Clouds | FEW017 FEW030 | 73.4 | 64.4 | 74% | 0 | 0.0 | |||||||
| 06 | 15:55 | N 10 | 0.00 | Light Drizzle | BKN019 BKN031 | 73.4 | 64.4 | 74% | 0 | 0.0 | |||||||
| 06 | 14:55 | N 9 | 0.00 | Mostly Cloudy | FEW015 BKN029 | 73.4 | 64.4 | 74% | 0 | 0.0 | |||||||
| 06 | 13:55 | NE 10 | 0.00 | A Few Clouds | FEW015 | 73.4 | 66.2 | 78% | 0 | 0.0 | |||||||
| 06 | 12:55 | NE 10 | 0.00 | A Few Clouds | FEW016 | 73.4 | 64.4 | 74% | 0 | 0.0 | |||||||
| 06 | 11:55 | NE 10 | 0.00 | A Few Clouds | FEW013 | 73.4 | 64.4 | 74% | 0 | 0.0 | |||||||
| 06 | 10:55 | NE 12 | 0.00 | Showers in Vicinity | SCT013 BKN035 | 71.6 | 66.2 | 83% | 0 | 0.0 | |||||||
| 06 | 09:55 | NE 7 | 0.00 | Showers in Vicinity | FEW007 BKN029 | 69.8 | 66.2 | 88% | 0 | 0.0 | |||||||
| 06 | 08:55 | N 8 | 0.00 | Showers in Vicinity | FEW009 BKN027 | 69.8 | 66.2 | 88% | 0 | 0.0 | |||||||
| Date | Time (adt) | Wind (mph) | Vis. (mi.) | Weather | Sky Cond. | Air | Dwpt | Max. | Min. | Relative Humidity | Wind Chill (°F) | Heat Index (°F) | altimeter (in) | sea level (mb) | 1 hr | 3 hr | 6 hr |
| 6 hour | |||||||||||||||||
| Temperature (ºF) | Pressure | Precipitation (in) | |||||||||||||||